Miscellaneous Local Product
Issued by NWS North Platte, NE

Home | Current Version | Previous Version | Text Only | Print | Product List | Glossary On
Versions: 1 2 3 4 5 6 7 8 9 10 11 12 13 14 15 16 17 18 19 20 21 22 23 24 25 26 27 28 29 30 31 32 33 34 35 36 37 38 39 40 41 42 43 44 45 46 47 48 49 50
000
AXUS43 KLBF 161610
MISLBF


WESTERN AND NORTH CENTRAL NEBRASKA HOURLY WEATHER ROUNDUP
NATIONAL WEATHER SERVICE NORTH PLATTE NE
1100 AM CDT THU APR 16 2015

***STATIONS NOT REPORTING VARIABLES SUCH AS SKY/WEATHER OR
PRESSURE ARE PROVIDED BY THE NEBRASKA DEPARTMENT OF
ROADS...RAWS...AND APRS NETWORKS...AND ARE NOT UNDER
NATIONAL WEATHER SERVICE QUALITY CONTROL***

...OBSERVATIONS IN AND NEAR THE EASTERN PANHANDLE OF NEBRASKA...

CITY           SKY/WX    TMP DP  RH WIND       PRES   REMARKS
PINE RIDGE     PTSUNNY   48  38  68 N12       30.15S
CHADRON        CLOUDY    49  40  71 NW9       30.17S
ALLIANCE       CLOUDY    43  39  86 N18       30.13R
SIDNEY         CLOUDY    41  37  86 N18       30.11S
$$

...OBSERVATIONS IN NORTH CENTRAL NEBRASKA...

CITY           SKY/WX    TMP DP  RH WIND       PRES   REMARKS
VALENTINE      PTSUNNY   54  39  57 NW13      30.11S
THEDFORD       CLOUDY    53  44  71 N13       30.09R
AINSWORTH      CLOUDY    54  42  63 N8        30.10R
O`NEILL        CLOUDY    56  52  86 NW7       30.09R FOG
ORD            CLOUDY    54  52  93 E6        30.07R FOG
BROKEN BOW     LGT RAIN  57  50  77 N12       30.06R
$$

...OBSERVATIONS IN SOUTHWEST NEBRASKA AND FAR NORTHEAST COLORADO...

CITY           SKY/WX    TMP DP  RH WIND       PRES   REMARKS
WRAY           CLOUDY    47  47 100 N16G23    30.06R
HOLYOKE        CLOUDY    45  43  93 N15G24    30.08R
IMPERIAL       LGT RAIN  49  47  93 N16       30.06S FOG
OGALLALA       LGT RAIN  47  46  95 NE10      30.10R
NORTH PLATTE   CLOUDY    52  49  89 N13       30.08R
MCCOOK         CLOUDY    53  52  96 NE10      30.04R FOG
LEXINGTON      CLOUDY    56  55  95 NE7       30.05S FOG
$$

...NORTH PLATTE AREA...

CITY           SKY/WX    TMP DP  RH WIND       PRES   REMARKS
AIRPORT        CLOUDY    52  49  89 N13       30.08R
$$

...SOME WEATHER OBSERVATIONS FROM AROUND THE REGION...

CITY           SKY/WX    TMP DP  RH WIND       PRES   REMARKS
DENVER         HVY SNOW  33  32  96 W6        30.11R VSB 1/4 WCI  28
LARAMIE        MIX PCPN  28  25  88 N22       30.08F WCI  14
CHEYENNE       FOG       31  29  92 N23G37    30.08S VSB 1/2 WCI  18
SCOTTSBLUFF    CLOUDY    43  39  86 NW9       30.14S
RAPID CITY     PTSUNNY   49  35  58 NW29G35   30.17R
PIERRE         MOSUNNY   55  42  61 NW6       30.07R
WINNER         FAIR      58  41  53 W9        30.10R
SIOUX FALLS    PTSUNNY   62  50  64 W6        30.06S
OMAHA          MOSUNNY   64  51  62 S8        30.07R
GRAND ISLAND   CLOUDY    56  52  86 E5        30.07R
KANSAS CITY    PTSUNNY   65  55  70 S5        30.08S
WICHITA        MOSUNNY   69  57  65 SE12      30.00R
HAYS           MOSUNNY   61  46  59 E12       30.01R
LIBERAL        CLOUDY    63  52  67 SE9       29.98R
GOODLAND       FOG       47  47 100 N13       30.04R VSB 1
$$



USA.gov is the U.S. government's official web portal to all federal, state and local government web resources and services.